Weather History for Lafayette, LA

Change the Weather History Date:

Monday, June 24, 2013

  Actual Average Record
Temperature  
Mean Temperature 82 °F 82 °F  
Max Temperature 89 °F 91 °F 102 °F (2009)
Min Temperature 75 °F 74 °F 63 °F (1902)
Cooling Degree Days 17 18  
Month to date cooling degree days 420 391  
Year to date cooling degree days 884 1005  
Since 1 June cooling degree days 420 391  
Growing Degree Days 32 (Base 50)    
Moisture  
Dew Point 73 °F    
Average Humidity 75    
Maximum Humidity 94    
Minimum Humidity 55    
Precipitation  
Precipitation 0.03 in 0.26 in 4.29 in (2004)
Month to date precipitation 2.96 5.53  
Year to date precipitation 35.08 28.15  
Sea Level Pressure  
Sea Level Pressure 30.08 in    
Wind  
Wind Speed 3 mph (South)    
Max Wind Speed 16 mph    
Max Gust Speed 21 mph    
Visibility 9 miles    
Events Rain , Thunderstorm    
T = Trace of Precipitation, MM = Missing Value Source: NWS Daily Summary

Daily Weather History Graph

Daily Weather History Graph

Search for Another Location

Airport:

Trip Planner

Search our weather history database for the weather conditions in past years. The results will help you decide how hot, cold, wet, or windy it might be!

Date:

Astronomy

Jun. 24, 2013 Rise Set
Actual Time 6:07 AM CDT 8:13 PM CDT
Civil Twilight 5:40 AM CDT 8:40 PM CDT
Nautical Twilight 5:06 AM CDT 9:14 PM CDT
Astronomical Twilight 4:30 AM CDT 9:50 PM CDT
Moon 9:25 PM CDT (6/24) 7:28 AM CDT (6/24)
Length of Visible Light 15h 00m
Length of Day
14h 05m
Full, 98% of the Moon is Illuminated
Jun 24
Full
Jun 29
Last Quarter
Jul 8
New
Jul 15
First Quarter
Jul 22
Full

Hourly Weather History & Observations

Time (CDT) Temp. Heat Index Dew Point Humidity Pressure Visibility Wind Dir Wind Speed Gust Speed Precip Events Conditions
12:53 AM 75.9 °F - 73.9 °F 94% 30.06 in 8.0 mi Calm Calm - N/A   Clear
1:53 AM 75.9 °F - 73.9 °F 94% 30.06 in 7.0 mi Calm Calm - N/A   Clear
2:53 AM 75.9 °F - 73.9 °F 94% 30.06 in 8.0 mi Calm Calm - N/A   Clear
3:53 AM 75.0 °F - 73.0 °F 94% 30.06 in 9.0 mi Calm Calm - N/A   Clear
4:53 AM 75.9 °F - 73.9 °F 94% 30.07 in 8.0 mi Calm Calm - N/A   Clear
5:53 AM 75.9 °F - 73.0 °F 91% 30.08 in 10.0 mi Calm Calm - N/A   Clear
6:53 AM 75.9 °F - 73.0 °F 91% 30.09 in 10.0 mi Calm Calm - N/A   Clear
7:53 AM 78.1 °F - 73.9 °F 87% 30.10 in 10.0 mi Calm Calm - N/A   Clear
8:53 AM 82.0 °F 88.6 °F 75.0 °F 79% 30.12 in 10.0 mi Variable 3.5 mph - N/A   Clear
9:53 AM 86.0 °F 93.8 °F 73.9 °F 67% 30.11 in 10.0 mi Variable 4.6 mph - N/A   Clear
10:53 AM 88.0 °F 96.5 °F 73.9 °F 63% 30.12 in 10.0 mi SSE 8.1 mph - N/A   Mostly Cloudy
11:53 AM 84.9 °F 90.7 °F 72.0 °F 65% 30.12 in 9.0 mi SSE 3.5 mph - 0.00 in   Partly Cloudy
12:53 PM 80.1 °F 83.8 °F 72.0 °F 76% 30.12 in 3.0 mi NNW 5.8 mph - 0.02 in Rain , Thunderstorm Heavy Rain
1:53 PM 79.0 °F - 73.0 °F 82% 30.10 in 10.0 mi Calm Calm - 0.01 in Thunderstorm Partly Cloudy
2:53 PM 82.9 °F 89.4 °F 73.9 °F 74% 30.09 in 10.0 mi Calm Calm - N/A   Clear
3:53 PM 86.0 °F 90.7 °F 70.0 °F 59% 30.07 in 10.0 mi South 9.2 mph - N/A   Clear
4:53 PM 88.0 °F 94.7 °F 72.0 °F 59% 30.06 in 10.0 mi SSW 11.5 mph - N/A   Clear
5:53 PM 87.1 °F 92.0 °F 70.0 °F 57% 30.06 in 10.0 mi South 6.9 mph - N/A   Clear
6:53 PM 84.9 °F 90.7 °F 72.0 °F 65% 30.04 in 10.0 mi South 9.2 mph - N/A   Clear
7:53 PM 82.9 °F 88.8 °F 73.0 °F 72% 30.06 in 10.0 mi South 3.5 mph - N/A   Clear
8:53 PM 81.0 °F 85.8 °F 73.0 °F 77% 30.05 in 10.0 mi Calm Calm - N/A   Clear
9:53 PM 80.1 °F 84.5 °F 73.9 °F 81% 30.05 in 10.0 mi Calm Calm - N/A   Clear
10:53 PM 78.1 °F - 73.9 °F 87% 30.07 in 10.0 mi Calm Calm - N/A   Clear
11:53 PM 75.9 °F - 73.0 °F 91% 30.09 in 10.0 mi Calm Calm - N/A   Clear